Change the Weather History Date:

Sunday, April 28, 2013

  Actual Average Record
Temperature  
Mean Temperature 63 °F 65 °F  
Max Temperature 79 °F 77 °F 94 °F (1987)
Min Temperature 46 °F 53 °F 32 °F (1904)
Degree Days  
Heating Degree Days 2 2  
Month to date heating degree days 200 149  
Since 1 July heating degree days 2981 3017  
Cooling Degree Days 0 2  
Month to date cooling degree days 51 34  
Year to date cooling degree days 55 45  
Growing Degree Days 12 (Base 50)    
Moisture  
Dew Point 51 °F    
Average Humidity 77    
Maximum Humidity 100    
Minimum Humidity 42    
Precipitation  
Precipitation 0.00 in 0.18 in 1.80 in (1947)
Month to date precipitation 1.78 3.57  
Year to date precipitation 7.28 15.21  
Snow  
Snow 0.00 in - - ()
Month to date snowfall 0.0  
Since 1 July snowfall 4.5  
Snow Depth 0.00 in    
Sea Level Pressure  
Sea Level Pressure 29.96 in    
Wind  
Wind Speed 2 mph (SE)    
Max Wind Speed 10 mph    
Max Gust Speed 12 mph    
Visibility 8 miles    
Events      
T = Trace of Precipitation, MM = Missing Value Source: NWS Daily Summary

Daily Weather History Graph

Daily Weather History Graph

Search for Another Location

Airport or City:

Trip Planner

Search our weather history database for the weather conditions in past years. The results will help you decide how hot, cold, wet, or windy it might be!

Date:

Astronomy

Apr. 28, 2013 Rise Set
Actual Time 6:31 AM CDT 7:59 PM CDT
Civil Twilight 6:04 AM CDT 8:25 PM CDT
Nautical Twilight 5:32 AM CDT 8:57 PM CDT
Astronomical Twilight 4:59 AM CDT 9:31 PM CDT
Moon 11:25 PM CDT (4/28) 8:53 AM CDT (4/28)
Length of Visible Light 14h 21m
Length of Day
13h 28m
Waning Gibbous, 88% of the Moon is Illuminated
Apr 28
Waning Gibbous
May 2
Last Quarter
May 9
New
May 17
First Quarter
May 24
Full

Hourly Weather History & Observations

Time (CDT) Temp. Dew Point Humidity Pressure Visibility Wind Dir Wind Speed Gust Speed Precip Events Conditions
12:53 AM 59.0 °F 52.0 °F 78% 30.02 in 10.0 mi North 3.5 mph - N/A   Overcast
1:14 AM 57.0 °F 51.1 °F 81% 30.03 in 10.0 mi Calm Calm - N/A   Scattered Clouds
1:53 AM 55.0 °F 51.1 °F 86% 30.00 in 10.0 mi NNW 3.5 mph - N/A   Clear
2:53 AM 51.1 °F 48.9 °F 92% 30.00 in 9.0 mi Calm Calm - N/A   Clear
3:53 AM 50.0 °F 48.9 °F 96% 29.99 in 8.0 mi Calm Calm - N/A   Clear
4:53 AM 51.1 °F 48.9 °F 92% 29.96 in 10.0 mi Calm Calm - N/A   Clear
5:53 AM 48.0 °F 46.0 °F 93% 29.97 in 8.0 mi Calm Calm - N/A   Clear
6:06 AM 46.9 °F 46.0 °F 97% 29.98 in 1.8 mi Calm Calm - N/A   Clear
6:16 AM 46.9 °F 46.0 °F 97% 29.98 in 3.0 mi Calm Calm - N/A   Clear
6:53 AM 48.0 °F 46.0 °F 93% 29.99 in 8.0 mi Calm Calm - N/A   Clear
7:06 AM 46.0 °F 45.0 °F 96% 30.00 in 1.2 mi Calm Calm - N/A   Clear
7:14 AM 46.0 °F 45.0 °F 96% 30.00 in 0.8 mi Calm Calm - N/A   Clear
7:18 AM 46.9 °F 46.0 °F 97% 30.00 in 2.0 mi Calm Calm - N/A   Clear
7:26 AM 48.0 °F 46.9 °F 96% 30.00 in 6.0 mi NNW 3.5 mph - N/A   Clear
8:53 AM 55.9 °F 51.1 °F 84% 30.01 in 10.0 mi SE 3.5 mph - N/A   Scattered Clouds
9:12 AM 57.0 °F 52.0 °F 83% 30.02 in 10.0 mi Variable 4.6 mph - N/A   Mostly Cloudy
9:29 AM 59.0 °F 52.0 °F 78% 30.02 in 10.0 mi Variable 4.6 mph - N/A   Scattered Clouds
9:53 AM 60.1 °F 52.0 °F 75% 30.01 in 10.0 mi ESE 4.6 mph - N/A   Partly Cloudy
10:53 AM 63.0 °F 53.1 °F 70% 30.00 in 10.0 mi Calm Calm - N/A   Clear
11:53 AM 66.0 °F 53.1 °F 63% 29.99 in 10.0 mi Calm Calm - N/A   Clear
12:53 PM 71.1 °F 54.0 °F 55% 29.96 in 10.0 mi Calm Calm - N/A   Clear
1:53 PM 75.0 °F 55.0 °F 50% 29.94 in 10.0 mi NNE 5.8 mph - N/A   Clear
2:53 PM 75.0 °F 54.0 °F 48% 29.92 in 10.0 mi Variable 4.6 mph - N/A   Clear
3:53 PM 78.1 °F 55.9 °F 46% 29.89 in 10.0 mi South 10.4 mph - N/A   Clear
4:53 PM 78.1 °F 53.1 °F 42% 29.88 in 10.0 mi SSW 5.8 mph - N/A   Clear
5:53 PM 79.0 °F 54.0 °F 42% 29.87 in 10.0 mi SW 8.1 mph - N/A   Clear
6:53 PM 77.0 °F 55.0 °F 47% 29.87 in 10.0 mi South 4.6 mph - N/A   Clear
7:53 PM 73.0 °F 54.0 °F 51% 29.88 in 10.0 mi SSE 3.5 mph - N/A   Clear
8:53 PM 66.0 °F 55.0 °F 68% 29.89 in 10.0 mi ESE 3.5 mph - N/A   Clear
9:53 PM 60.1 °F 55.9 °F 86% 29.91 in 10.0 mi Calm Calm - N/A   Clear
10:53 PM 57.9 °F 55.0 °F 90% 29.91 in 10.0 mi Calm Calm - N/A   Clear
11:53 PM 55.9 °F 55.0 °F 97% 29.91 in 8.0 mi Calm Calm - N/A   Clear